Regional Weather Roundup
Issued by NWS

Home | Current Version | Previous Version | Graphics & Text | Print | Product List | Glossary On
Versions: 1 2 3 4 5 6 7 8 9 10 11 12 13 14 15 16 17 18 19 20 21 22 23 24 25 26 27 28 29 30 31 32 33 34 35 36 37 38 39 40 41 42 43 44 45 46 47 48 49 50
182
ASUS43 KIND 230209
RWRIN

WEATHER ROUNDUP FOR INDIANA
NATIONAL WEATHER SERVICE INDIANAPOLIS IN
1000 PM EDT FRI SEP 22 2017

NOTE: "FAIR" INDICATES FEW OR NO CLOUDS BELOW 12,000 FEET WITH NO
SIGNIFICANT WEATHER AND/OR OBSTRUCTIONS TO VISIBILITY.

* - STATION DOES NOT REPORT WEATHER SUCH AS PRECIPITATION OR FOG.

+ - STATION NOT QUALITY CONTROLLED BY THE NATIONAL WEATHER SERVICE.
    USE DATA WITH CAUTION...ESPECIALLY DEWPOINT AND RELATIVE
    HUMIDITY OBSERVATIONS.

INZ001>003-010>013-019-020-230300-
NORTHWEST INDIANA

CITY           SKY/WX    TMP DP  RH WIND       PRES   REMARKS
GARY /AIRPORT/ CLEAR     75  68  78 E5        30.05S
KNOX *+        CLEAR     73  68  83 E5        30.05S
LA PORTE +     CLEAR     73  69  86 CALM      30.07S
MICHIGAN CITY+ CLEAR     72  72 100 CALM      30.05F
MONTICELLO +   CLEAR     77  67  72 CALM      30.05S
RENSSELAER +   CLEAR     77  63  61 CALM      30.05S
VALPARAISO     CLEAR     78  68  71 CALM      30.06R

$$

LMZ046-743>745-230300-
SOUTHERN LAKE MICHIGAN

STATION/POSITION TIME  TEMP    WIND        PRES    WAVE
                       AIR SEA DIR/SP/G            HT
                 (UTC) (F)     (DEG/KT/KT) (MB)    (FT)
BURNS HARBOR     0140   77      CALM  /  3 1017.9R
MICHIGAN CITY    0140   79      60/  3/  3   N/A
5NW MICH CITY    0200   75 72  100/  4/  4   N/A     0

$$

INZ004-005-014>016-021>024-230300-
NORTH CENTRAL INDIANA

CITY           SKY/WX    TMP DP  RH WIND       PRES   REMARKS
GOSHEN         CLEAR     73  68  84 CALM      30.07S
LOGANSPORT +   CLEAR     72  63  73 CALM      30.07S
PERU/GRISSOM   CLEAR     75  68  77 CALM      30.06R
SOUTH BEND     CLEAR     75  69  81 CALM      30.07R
WARSAW +       CLEAR     72  70  94 CALM      30.07S

$$

INZ006>009-017-018-025>027-230300-
NORTHEAST INDIANA

CITY           SKY/WX    TMP DP  RH WIND       PRES   REMARKS
AUBURN +       CLEAR     73  66  78 CALM      30.08S
FORT WAYNE     CLEAR     72  68  87 CALM      30.07S
HUNTINGTON +   CLEAR     72  70  95 CALM      30.07S
KENDALLVILLE + CLEAR     72  68  89 CALM      30.08S

$$

INZ028-029-035-036-043>045-051>053-230300-
WEST CENTRAL INDIANA

CITY           SKY/WX    TMP DP  RH WIND       PRES   REMARKS
GREENCASTLE +  PTCLDY    72  63  73 CALM      30.07S
LAFAYETTE      PTCLDY    74  69  85 CALM      30.04F
TERRE HAUTE    PTCLDY    75  66  73 E5        30.04S

$$

INZ030>032-037>040-046>048-054>057-064-065-230300-
CENTRAL INDIANA

CITY           SKY/WX    TMP DP  RH WIND       PRES   REMARKS
CP ATTERBURY + CLEAR     72  68  88 CALM      30.06S
COLUMBUS       CLEAR     72  66  83 E3        30.06R
FISHERS *+     CLEAR     72  70  94 CALM      30.06
FRANKFORT +    MOCLDY    73  69  87 CALM      30.08F
GREENWOOD *+   CLEAR     78  73  84 E3        30.07R
INDIANAPOLIS   PTCLDY    77  66  68 CALM      30.06R
-EAGLE CREEK   CLEAR     76  69  79 CALM      30.05S
KOKOMO +       CLEAR     72  69  90 CALM      30.07S
MARION +       CLOUDY    72  70  94 CALM      30.08R
MT COMFORT *+  CLEAR     70  68  94 CALM      30.07S
SHELBYVILLE    CLEAR     75  66  73 CALM      30.06R
ZIONSVILLE +   CLEAR     70  67  90 CALM      30.08R

$$

INZ033-034-041-042-049-050-058-059-230300-
EAST CENTRAL INDIANA

CITY           SKY/WX    TMP DP  RH WIND       PRES   REMARKS
MUNCIE         CLEAR     71  68  90 CALM      30.07S
RICHMOND +     PTCLDY    70  68  94 CALM      30.10R FOG

$$

INZ060-061-067>069-081>083-085>088-230300-
SOUTHWEST INDIANA

CITY           SKY/WX    TMP DP  RH WIND       PRES   REMARKS
EVANSVILLE     CLEAR     75  67  76 CALM      30.03R
HUNTINGBURG +  CLEAR     74  70  87 CALM      30.04S
WASHINGTON +   CLEAR     74  66  76 CALM      30.03S

$$

INZ062-063-066-070>080-084-089>092-230300-
SOUTH CENTRAL AND SOUTHEAST INDIANA

CITY           SKY/WX    TMP DP  RH WIND       PRES   REMARKS
BEDFORD +      CLOUDY    75  66  73 CALM      30.05R
BLOOMINGTON    CLOUDY    75  67  76 CALM      30.06S
MADISON *+     CLEAR     70  68  94 CALM      30.08S
NORTH VERNON + CLEAR     68  66  94 CALM      30.07S
SEYMOUR +      CLEAR     72  68  88 CALM      30.05S

$$





USA.gov is the U.S. government's official web portal to all federal, state and local government web resources and services.